User: anonymous   Login
Location: �chenoz-la-M�line
(47.6009°N, 6.1354°E)
Time: 11:36:56
(UTC+00:00)
Language:

Meteor 1-31 Rocket - Orbit

View from above orbital plane
View from above orbital plane
View from above satellite
View from above satellite

Ground track
Ground track

The orbit data is extracted from the following two-line orbital elements,

1 12586U 81065B   21113.11543158  .00000673  00000-0  44113-4 0  9991
2 12586  97.6543 101.1702 0020080  59.3139 301.0066 15.11013222168739
Epoch (UTC): 23 April 2021 02:46:13
Eccentricity: 0.0020080
inclination: 97.6543°
perigee height: 519 km
apogee height: 547 km
right ascension of ascending node: 101.1702°
argument of perigee: 59.3139°
revolutions per day: 15.11013222
mean anomaly at epoch: 301.0066°
orbit number at epoch: 16873

The dashed part of the orbit path shows where the satellite is in the earth's shadow,  

DLR